TimeCST,TemperatureF,Dew PointF,Humidity,Sea Level PressureIn,VisibilityMPH,Wind Direction,Wind SpeedMPH,Gust SpeedMPH,PrecipitationIn,Events,Conditions,WindDirDegrees,DateUTC
12:10 AM,-2.2,-9.4,71,30.37,9.0,NW,18.4,26.5,0.00,Snow,Light Snow,320,2013-01-21 06:10:00
12:42 AM,-2.2,-11.2,66,30.37,10.0,NNW,23.0,28.8,0.00,,Scattered Clouds,330,2013-01-21 06:42:00
12:56 AM,-4.0,-13.0,65,30.49,10.0,NNW,17.3,27.6,0.00,,Scattered Clouds,330,2013-01-21 06:56:00
1:00 AM,-4.0,-13.0,65,30.37,10.0,NW,21.9,28.8,N/A,,Mostly Cloudy,320,2013-01-21 07:00:00
1:56 AM,-5.1,-14.1,65,30.49,10.0,NW,23.0,27.6,N/A,,Mostly Cloudy,320,2013-01-21 07:56:00
2:56 AM,-5.8,-14.8,65,30.50,10.0,NW,23.0,26.5,N/A,,Scattered Clouds,320,2013-01-21 08:56:00
3:56 AM,-6.0,-14.1,68,30.49,10.0,NW,18.4,-,N/A,,Partly Cloudy,310,2013-01-21 09:56:00
4:56 AM,-7.1,-16.1,65,30.48,10.0,NW,15.0,26.5,N/A,,Clear,310,2013-01-21 10:56:00
5:56 AM,-8.0,-16.1,68,30.49,10.0,NW,15.0,-,N/A,,Clear,320,2013-01-21 11:56:00
6:56 AM,-9.0,-16.1,71,30.49,10.0,NW,6.9,-,N/A,,Clear,320,2013-01-21 12:56:00
7:56 AM,-8.0,-16.1,68,30.49,10.0,NW,11.5,-,N/A,,Clear,310,2013-01-21 13:56:00
8:56 AM,-6.0,-14.1,68,30.50,10.0,WNW,16.1,23.0,N/A,,Clear,300,2013-01-21 14:56:00
9:56 AM,-6.0,-14.1,68,30.51,10.0,WNW,12.7,-,N/A,,Clear,300,2013-01-21 15:56:00
10:56 AM,-4.0,-13.0,65,30.52,10.0,NW,15.0,19.6,N/A,,Clear,310,2013-01-21 16:56:00
11:56 AM,-0.9,-11.0,62,30.49,10.0,WNW,15.0,-,N/A,,Clear,300,2013-01-21 17:56:00
12:56 PM,-0.0,-9.0,66,30.47,10.0,NW,11.5,20.7,N/A,,Clear,310,2013-01-21 18:56:00
1:56 PM,1.0,-8.0,66,30.45,10.0,WNW,12.7,-,N/A,,Clear,290,2013-01-21 19:56:00
2:56 PM,1.9,-7.1,66,30.44,10.0,WNW,13.8,19.6,N/A,,Clear,290,2013-01-21 20:56:00
3:56 PM,1.0,-8.0,66,30.44,10.0,West,8.1,-,N/A,,Clear,280,2013-01-21 21:56:00
4:56 PM,-0.0,-9.0,66,30.44,10.0,West,8.1,-,N/A,,Clear,280,2013-01-21 22:56:00
5:56 PM,-2.9,-9.0,75,30.45,10.0,West,5.8,-,N/A,,Clear,280,2013-01-21 23:56:00
6:56 PM,-2.9,-9.0,75,30.44,10.0,West,5.8,-,N/A,,Clear,260,2013-01-22 00:56:00
7:56 PM,-6.0,-11.0,79,30.44,10.0,West,3.5,-,N/A,,Clear,260,2013-01-22 01:56:00
8:56 PM,-5.1,-9.9,80,30.44,10.0,Calm,Calm,-,N/A,,Clear,0,2013-01-22 02:56:00
9:56 PM,-0.9,-7.1,75,30.43,10.0,Calm,Calm,-,N/A,,Clear,0,2013-01-22 03:56:00
10:56 PM,1.9,-4.0,76,30.42,10.0,WNW,5.8,-,N/A,,Partly Cloudy,290,2013-01-22 04:56:00
11:56 PM,3.0,-5.1,69,30.41,10.0,NW,5.8,-,N/A,,Overcast,310,2013-01-22 05:56:00